星链-32871 (STARLINK-32871)

导读

STARLINK-32871是美国SpaceX公司星链(Starlink)星座计划中的一颗低轨通信卫星,于2025年2月8日发射入轨。作为全球规模最大的低轨卫星互联网星座组成部分,它承担着为全球偏远地区提供低延迟、高速宽带互联网接入服务的任务,依托星链先进的相控阵天线和星间激光通信技术,助力实现全球网络覆盖,推动卫星互联网商业化应用发展。

Basic Information
目录编号:
62924
目录名称:
STARLINK-32871
国际标识:
2025-027T
轨道中心:
EARTH
卫星名称:
星链-32871
卫星全名:
星链-32871 (STARLINK-32871)
卫星状态:
在轨 (已飞行574 天)
发射日期:
2025-02-08 UTC
国别 :
美国 (US)
星等 :
--
Orbit Information
数据来源 国际轨道数据 AOE轨道数据
星历时间 2026-09-04T12:53:14+0800
1天前
查看轨道信息
2026-09-04T23:00:00+0800
17小时前
查看轨道信息
半长轴 6861.168km 6861.195km
偏心率 0.0002155 0.0001455
轨道倾角 43.004° 43.002°
近地点辐角 251.300° 254.658°
升交点赤经 200.716° 198.340°
平近点角 108.762° 265.328°
近地点 481.552km 482.059km
远地点 484.51km 484.057km
周期 94.266分钟 94.267分钟
每日圈数 15.275861 15.275771
Detailed Information
固有亮度:
5
最大亮度:
2.5
卫星平台:
Starlink V1.0
覆盖范围:
全球
运营商:
太空探索技术公司
运营商所在国:
美国
制造商(研发单位):
太空探索技术公司
制造商所在国:
美国
使用方式:
暂无
Satellite Introduction
Starlink 计划是 SpaceX 推出的全球卫星互联网项目,通过发射低轨道卫星,为全球尤其是偏远地区提供高速、低延迟的互联网服务。自 2019 年起,Starlink 已部署数千颗卫星,旨在缩小全球数字鸿沟,推动互联网普及。该项目还为军事、航空等行业提供通信支持,带来广泛经济效益。
2D Orbit Map
3D Orbit Map
Orbit Altitude Analysis Chart
Orbit Inclination Analysis Chart
Orbit Comprehensive Analysis Chart
View Comprehensive Chart
Conjunction Data List
Event ID Objects TCA Miss Dist (km) Collision Risk Probability Collision Risk Index (CRI) Action
CDM_260907-152905-947006-292421
2026-09-07T
15:29:21+0000
0.505 km
远距离
1.369614E-4 高风险 0.78
CDM_260907-084605-655206-292421
2026-09-07T
08:46:13+0000
0.760 km
远距离
4.253421E-5 中风险 0.68
CDM_260907-102005-655206-292421
2026-09-07T
10:20:23+0000
0.942 km
远距离
2.092139E-5 中风险 0.61
CDM_260907-135505-947006-292421
2026-09-07T
13:55:12+0000
1.577 km
极远距离
3.733797E-6 低风险 0.46
CDM_260906-112406-021406-292422
2026-09-06T
11:24:30+0000
2.346 km
极远距离
1.709423E-6 低风险 0.4
CDM_260907-071205-655206-292421
2026-09-07T
07:12:04+0000
2.128 km
极远距离
1.639424E-6 低风险 0.39
CDM_260907-115405-655206-292421
2026-09-07T
11:54:32+0000
2.385 km
极远距离
1.297493E-6 低风险 0.37
CDM_260907-122105-947006-292421
2026-09-07T
12:21:02+0000
2.927 km
极远距离
9.632082E-7 极低风险 0.35